contact:dominique.lefevre@mio.osupytheas.fr, maurice.libes@osupytheas.fr, didier.mallarino@osupytheas.fr
Project:EMSO http://www.emso-fr.org/EMSO-France
Depth: 2436.0 m
Title:EMSO Ligure Ouest : Data MII capteur MICROCAT
DateTime_Computer,Latitude,Longitude,Temperature,Conductivity,Pressure,DateTime_Instrument
DateTime_Computer,Latitude,Longitude,degC,S m-1,dbar,DateTime_Instrument
2020-08-02T00:02:52Z,42.805,6.029,13.2985,4.60039,2470.017,2020-8-02T02:03:40Z
2020-08-02T00:05:55Z,42.805,6.029,13.2977,4.60041,2470.007,2020-8-02T02:06:44Z
2020-08-02T00:08:59Z,42.805,6.029,13.2990,4.60027,2470.053,2020-8-02T02:09:47Z
2020-08-02T00:12:02Z,42.805,6.029,13.2997,4.60040,2470.053,2020-8-02T02:12:50Z
2020-08-02T00:15:05Z,42.805,6.029,13.2982,4.60024,2470.017,2020-8-02T02:15:53Z
2020-08-02T00:18:08Z,42.805,6.029,13.2990,4.60029,2470.04,2020-8-02T02:18:56Z
2020-08-02T00:21:12Z,42.805,6.029,13.2994,4.60041,2470.04,2020-8-02T02:22:00Z
2020-08-02T00:24:15Z,42.805,6.029,13.2985,4.60014,2470.03,2020-8-02T02:25:03Z
2020-08-02T00:27:18Z,42.805,6.029,13.2983,4.60028,2469.993,2020-8-02T02:28:06Z
2020-08-02T00:30:21Z,42.805,6.029,13.2981,4.60022,2469.993,2020-8-02T02:31:09Z
2020-08-02T00:33:24Z,42.805,6.029,13.2990,4.60031,2470.053,2020-8-02T02:34:13Z
2020-08-02T00:36:28Z,42.805,6.029,13.2989,4.60031,2470.007,2020-8-02T02:37:16Z
2020-08-02T00:39:31Z,42.805,6.029,13.2990,4.60056,2470.03,2020-8-02T02:40:19Z
2020-08-02T00:42:34Z,42.805,6.029,13.2992,4.60056,2469.993,2020-8-02T02:43:23Z
2020-08-02T00:45:38Z,42.805,6.029,13.2986,4.60027,2470.04,2020-8-02T02:46:26Z
2020-08-02T00:48:41Z,42.805,6.029,13.2991,4.60055,2470.03,2020-8-02T02:49:29Z
2020-08-02T00:51:44Z,42.805,6.029,13.2995,4.60053,2470.03,2020-8-02T02:52:32Z
2020-08-02T00:54:47Z,42.805,6.029,13.2982,4.60055,2470.04,2020-8-02T02:55:36Z
2020-08-02T00:57:51Z,42.805,6.029,13.2990,4.60041,2470.017,2020-8-02T02:58:39Z
2020-08-02T01:00:54Z,42.805,6.029,13.2990,4.60052,2470.007,2020-8-02T03:01:42Z
2020-08-02T01:03:57Z,42.805,6.029,13.2985,4.60039,2470.017,2020-8-02T03:04:45Z
2020-08-02T01:07:00Z,42.805,6.029,13.2987,4.60025,2470.03,2020-8-02T03:07:49Z
2020-08-02T01:10:04Z,42.805,6.029,13.2995,4.60054,2469.984,2020-8-02T03:10:52Z
2020-08-02T01:13:07Z,42.805,6.029,13.2996,4.60046,2470.017,2020-8-02T03:13:55Z
2020-08-02T01:16:10Z,42.805,6.029,13.2993,4.60051,2470.017,2020-8-02T03:16:58Z
2020-08-02T01:19:13Z,42.805,6.029,13.3028,4.60062,2469.993,2020-8-02T03:20:01Z
2020-08-02T01:22:17Z,42.805,6.029,13.2990,4.60038,2470.017,2020-8-02T03:23:05Z
2020-08-02T01:25:20Z,42.805,6.029,13.2995,4.60033,2470.03,2020-8-02T03:26:08Z
2020-08-02T01:28:23Z,42.805,6.029,13.2998,4.60045,2470.017,2020-8-02T03:29:11Z
2020-08-02T01:31:26Z,42.805,6.029,13.3009,4.60057,2470.017,2020-8-02T03:32:14Z
2020-08-02T01:34:29Z,42.805,6.029,13.2985,4.60069,2470.03,2020-8-02T03:35:17Z
2020-08-02T01:37:33Z,42.805,6.029,13.3023,4.60049,2469.993,2020-8-02T03:38:21Z
2020-08-02T01:40:36Z,42.805,6.029,13.2978,4.60033,2470.03,2020-8-02T03:41:24Z
2020-08-02T01:43:39Z,42.805,6.029,13.2998,4.60043,2469.993,2020-8-02T03:44:28Z
2020-08-02T01:46:43Z,42.805,6.029,13.2999,4.60055,2470.03,2020-8-02T03:47:31Z
2020-08-02T01:49:46Z,42.805,6.029,13.2983,4.60032,2470.017,2020-8-02T03:50:34Z
2020-08-02T01:52:49Z,42.805,6.029,13.2984,4.60054,2470.03,2020-8-02T03:53:37Z
2020-08-02T01:55:52Z,42.805,6.029,13.2987,4.60049,2470.017,2020-8-02T03:56:41Z
2020-08-02T01:58:56Z,42.805,6.029,13.3037,4.60036,2469.97,2020-8-02T03:59:44Z
2020-08-02T02:01:59Z,42.805,6.029,13.2994,4.60056,2470.04,2020-8-02T04:02:47Z
2020-08-02T02:05:02Z,42.805,6.029,13.2989,4.60061,2469.993,2020-8-02T04:05:50Z
2020-08-02T02:08:05Z,42.805,6.029,13.3033,4.60031,2470.007,2020-8-02T04:08:54Z
2020-08-02T02:11:09Z,42.805,6.029,13.2997,4.60044,2470.007,2020-8-02T04:11:57Z
2020-08-02T02:14:12Z,42.805,6.029,13.3000,4.60019,2470.03,2020-8-02T04:15:00Z
2020-08-02T02:17:15Z,42.805,6.029,13.2998,4.60029,2469.993,2020-8-02T04:18:03Z
2020-08-02T02:20:18Z,42.805,6.029,13.3000,4.60043,2469.993,2020-8-02T04:21:07Z
2020-08-02T02:23:22Z,42.805,6.029,13.3007,4.60062,2470.017,2020-8-02T04:24:10Z
2020-08-02T02:26:25Z,42.805,6.029,13.3008,4.60032,2470.017,2020-8-02T04:27:13Z
2020-08-02T02:29:28Z,42.805,6.029,13.2996,4.60044,2470.017,2020-8-02T04:30:16Z
2020-08-02T02:32:31Z,42.805,6.029,13.2998,4.60014,2470.007,2020-8-02T04:33:20Z
2020-08-02T02:35:35Z,42.805,6.029,13.2999,4.60046,2470.007,2020-8-02T04:36:23Z
2020-08-02T02:38:38Z,42.805,6.029,13.2992,4.60041,2470.077,2020-8-02T04:39:26Z
2020-08-02T02:41:41Z,42.805,6.029,13.2996,4.60020,2470.017,2020-8-02T04:42:29Z
2020-08-02T02:44:44Z,42.805,6.029,13.3015,4.60033,2470.017,2020-8-02T04:45:32Z
2020-08-02T02:47:47Z,42.805,6.029,13.3008,4.60002,2470.077,2020-8-02T04:48:36Z
2020-08-02T02:50:51Z,42.805,6.029,13.2993,4.60041,2470.03,2020-8-02T04:51:39Z
2020-08-02T02:53:54Z,42.805,6.029,13.2995,4.60034,2470.04,2020-8-02T04:54:42Z
2020-08-02T02:56:57Z,42.805,6.029,13.3004,4.59999,2470.017,2020-8-02T04:57:45Z
2020-08-02T03:00:00Z,42.805,6.029,13.3006,4.60000,2470.017,2020-8-02T05:00:49Z
2020-08-02T03:03:04Z,42.805,6.029,13.3010,4.60002,2470.053,2020-8-02T05:03:52Z
2020-08-02T03:06:07Z,42.805,6.029,13.3000,4.60014,2470.063,2020-8-02T05:06:55Z
2020-08-02T03:09:10Z,42.805,6.029,13.2996,4.60001,2470.04,2020-8-02T05:09:59Z
2020-08-02T03:12:14Z,42.805,6.029,13.2989,4.59989,2470.077,2020-8-02T05:13:02Z
2020-08-02T03:15:17Z,42.805,6.029,13.2981,4.59981,2470.04,2020-8-02T05:16:05Z
2020-08-02T03:18:20Z,42.805,6.029,13.2994,4.60008,2470.04,2020-8-02T05:19:08Z
2020-08-02T03:21:24Z,42.805,6.029,13.3014,4.60009,2470.063,2020-8-02T05:22:12Z
2020-08-02T03:24:27Z,42.805,6.029,13.2998,4.59989,2470.063,2020-8-02T05:25:15Z
2020-08-02T03:27:30Z,42.805,6.029,13.2982,4.59982,2470.017,2020-8-02T05:28:18Z
2020-08-02T03:30:33Z,42.805,6.029,13.3007,4.59999,2470.063,2020-8-02T05:31:22Z
2020-08-02T03:33:37Z,42.805,6.029,13.2999,4.60002,2470.053,2020-8-02T05:34:25Z
2020-08-02T03:36:40Z,42.805,6.029,13.3000,4.59995,2470.077,2020-8-02T05:37:28Z
2020-08-02T03:39:43Z,42.805,6.029,13.2999,4.60001,2470.1,2020-8-02T05:40:31Z
2020-08-02T03:42:46Z,42.805,6.029,13.2999,4.60003,2470.077,2020-8-02T05:43:34Z
2020-08-02T03:45:49Z,42.805,6.029,13.2994,4.59991,2470.1,2020-8-02T05:46:37Z
2020-08-02T03:48:53Z,42.805,6.029,13.2999,4.59986,2470.04,2020-8-02T05:49:41Z
2020-08-02T03:51:56Z,42.805,6.029,13.2990,4.60000,2470.063,2020-8-02T05:52:44Z
2020-08-02T03:54:59Z,42.805,6.029,13.3004,4.60001,2470.1,2020-8-02T05:55:47Z
2020-08-02T03:58:02Z,42.805,6.029,13.2998,4.59999,2470.063,2020-8-02T05:58:51Z
2020-08-02T04:01:06Z,42.805,6.029,13.2999,4.59988,2470.077,2020-8-02T06:01:54Z
2020-08-02T04:04:09Z,42.805,6.029,13.2974,4.59973,2470.087,2020-8-02T06:04:57Z
2020-08-02T04:07:12Z,42.805,6.029,13.3009,4.60000,2470.087,2020-8-02T06:08:00Z
2020-08-02T04:10:15Z,42.805,6.029,13.2975,4.59990,2470.087,2020-8-02T06:11:03Z
2020-08-02T04:13:19Z,42.805,6.029,13.2978,4.59985,2470.087,2020-8-02T06:14:07Z
2020-08-02T04:16:22Z,42.805,6.029,13.2992,4.60019,2470.087,2020-8-02T06:17:10Z
2020-08-02T04:19:25Z,42.805,6.029,13.2995,4.60007,2470.11,2020-8-02T06:20:13Z
2020-08-02T04:22:28Z,42.805,6.029,13.2996,4.60039,2470.087,2020-8-02T06:23:16Z
2020-08-02T04:25:31Z,42.805,6.029,13.3004,4.60025,2470.1,2020-8-02T06:26:19Z
2020-08-02T04:28:35Z,42.805,6.029,13.3009,4.60030,2470.087,2020-8-02T06:29:23Z
2020-08-02T04:31:38Z,42.805,6.029,13.3000,4.60013,2470.049,2020-8-02T06:32:26Z
2020-08-02T04:34:41Z,42.805,6.029,13.3001,4.60003,2470.1,2020-8-02T06:35:29Z
2020-08-02T04:37:44Z,42.805,6.029,13.3001,4.60000,2470.087,2020-8-02T06:38:32Z
2020-08-02T04:40:47Z,42.805,6.029,13.2998,4.59993,2470.087,2020-8-02T06:41:36Z
2020-08-02T04:43:51Z,42.805,6.029,13.2994,4.59996,2470.087,2020-8-02T06:44:39Z
2020-08-02T04:46:54Z,42.805,6.029,13.2995,4.59986,2470.11,2020-8-02T06:47:42Z
2020-08-02T04:49:57Z,42.805,6.029,13.2993,4.60007,2470.1,2020-8-02T06:50:45Z
2020-08-02T04:53:00Z,42.805,6.029,13.3000,4.60012,2470.124,2020-8-02T06:53:48Z
2020-08-02T04:56:04Z,42.805,6.029,13.2988,4.60030,2470.124,2020-8-02T06:56:52Z
2020-08-02T04:59:07Z,42.805,6.029,13.2996,4.59999,2470.124,2020-8-02T06:59:55Z
2020-08-02T05:02:10Z,42.805,6.029,13.2992,4.60001,2470.11,2020-8-02T07:02:58Z
2020-08-02T05:05:13Z,42.805,6.029,13.2999,4.59987,2470.063,2020-8-02T07:06:01Z
2020-08-02T05:08:16Z,42.805,6.029,13.2984,4.59988,2470.1,2020-8-02T07:09:05Z
2020-08-02T05:11:20Z,42.805,6.029,13.2991,4.60002,2470.11,2020-8-02T07:12:08Z
2020-08-02T05:14:23Z,42.805,6.029,13.2994,4.59998,2470.124,2020-8-02T07:15:11Z
2020-08-02T05:17:26Z,42.805,6.029,13.2986,4.60004,2470.11,2020-8-02T07:18:14Z
2020-08-02T05:20:29Z,42.805,6.029,13.2999,4.60009,2470.147,2020-8-02T07:21:17Z
2020-08-02T05:23:32Z,42.805,6.029,13.2999,4.59995,2470.133,2020-8-02T07:24:21Z
2020-08-02T05:26:36Z,42.805,6.029,13.2988,4.60021,2470.124,2020-8-02T07:27:24Z
2020-08-02T05:29:39Z,42.805,6.029,13.2992,4.59996,2470.11,2020-8-02T07:30:27Z
2020-08-02T05:32:42Z,42.805,6.029,13.2977,4.59983,2470.147,2020-8-02T07:33:30Z
2020-08-02T05:35:45Z,42.805,6.029,13.2986,4.59975,2470.11,2020-8-02T07:36:34Z
2020-08-02T05:38:49Z,42.805,6.029,13.2991,4.59994,2470.11,2020-8-02T07:39:37Z
2020-08-02T05:41:52Z,42.805,6.029,13.2991,4.60003,2470.11,2020-8-02T07:42:40Z
2020-08-02T05:44:55Z,42.805,6.029,13.2990,4.60011,2470.11,2020-8-02T07:45:43Z
2020-08-02T05:47:59Z,42.805,6.029,13.2979,4.59986,2470.124,2020-8-02T07:48:47Z
2020-08-02T05:51:02Z,42.805,6.029,13.2989,4.59980,2470.124,2020-8-02T07:51:50Z
2020-08-02T05:54:05Z,42.805,6.029,13.2971,4.59980,2470.087,2020-8-02T07:54:53Z
2020-08-02T05:57:08Z,42.805,6.029,13.3000,4.59998,2470.1,2020-8-02T07:57:56Z
2020-08-02T06:00:11Z,42.805,6.029,13.2969,4.59976,2470.11,2020-8-02T08:00:59Z
2020-08-02T06:03:14Z,42.805,6.029,13.2971,4.59972,2470.11,2020-8-02T08:04:03Z
2020-08-02T06:06:18Z,42.805,6.029,13.2987,4.59998,2470.1,2020-8-02T08:07:06Z
2020-08-02T06:09:21Z,42.805,6.029,13.2974,4.59973,2470.133,2020-8-02T08:10:09Z
2020-08-02T06:12:24Z,42.805,6.029,13.2979,4.59973,2470.147,2020-8-02T08:13:12Z
2020-08-02T06:15:27Z,42.805,6.029,13.2977,4.59973,2470.133,2020-8-02T08:16:16Z
2020-08-02T06:18:31Z,42.805,6.029,13.2974,4.59975,2470.11,2020-8-02T08:19:19Z
2020-08-02T06:21:34Z,42.805,6.029,13.2970,4.59973,2470.124,2020-8-02T08:22:22Z
2020-08-02T06:24:37Z,42.805,6.029,13.2976,4.59994,2470.133,2020-8-02T08:25:25Z
2020-08-02T06:27:40Z,42.805,6.029,13.2972,4.59978,2470.11,2020-8-02T08:28:28Z
2020-08-02T06:30:44Z,42.805,6.029,13.2980,4.59983,2470.147,2020-8-02T08:31:32Z
2020-08-02T06:33:47Z,42.805,6.029,13.2967,4.59982,2470.133,2020-8-02T08:34:35Z
2020-08-02T06:36:50Z,42.805,6.029,13.2976,4.59995,2470.11,2020-8-02T08:37:38Z
2020-08-02T06:39:53Z,42.805,6.029,13.2975,4.59976,2470.133,2020-8-02T08:40:42Z
2020-08-02T06:42:57Z,42.805,6.029,13.2977,4.59981,2470.124,2020-8-02T08:43:45Z
2020-08-02T06:46:00Z,42.805,6.029,13.2973,4.59980,2470.11,2020-8-02T08:46:48Z
2020-08-02T06:49:03Z,42.805,6.029,13.3001,4.59991,2470.124,2020-8-02T08:49:51Z
2020-08-02T06:52:06Z,42.805,6.029,13.2988,4.60001,2470.133,2020-8-02T08:52:54Z
2020-08-02T06:55:10Z,42.805,6.029,13.2970,4.59973,2470.11,2020-8-02T08:55:58Z
2020-08-02T06:58:13Z,42.805,6.029,13.2969,4.59976,2470.147,2020-8-02T08:59:01Z
2020-08-02T07:01:16Z,42.805,6.029,13.2981,4.59984,2470.147,2020-8-02T09:02:04Z
2020-08-02T07:04:19Z,42.805,6.029,13.2972,4.59973,2470.133,2020-8-02T09:05:07Z
2020-08-02T07:07:22Z,42.805,6.029,13.2974,4.59978,2470.11,2020-8-02T09:08:11Z
2020-08-02T07:10:26Z,42.805,6.029,13.2979,4.59995,2470.1,2020-8-02T09:11:14Z
2020-08-02T07:13:29Z,42.805,6.029,13.2990,4.59980,2470.147,2020-8-02T09:14:17Z
2020-08-02T07:16:32Z,42.805,6.029,13.2991,4.59995,2470.087,2020-8-02T09:17:20Z
2020-08-02T07:19:35Z,42.805,6.029,13.2983,4.59983,2470.11,2020-8-02T09:20:23Z
2020-08-02T07:22:39Z,42.805,6.029,13.2982,4.59996,2470.161,2020-8-02T09:23:27Z
2020-08-02T07:25:42Z,42.805,6.029,13.2984,4.59986,2470.1,2020-8-02T09:26:30Z
2020-08-02T07:28:45Z,42.805,6.029,13.2994,4.59997,2470.11,2020-8-02T09:29:34Z
2020-08-02T07:31:49Z,42.805,6.029,13.2991,4.59996,2470.087,2020-8-02T09:32:37Z
2020-08-02T07:34:52Z,42.805,6.029,13.2982,4.59990,2470.124,2020-8-02T09:35:40Z
2020-08-02T07:37:55Z,42.805,6.029,13.2978,4.59976,2470.11,2020-8-02T09:38:43Z
2020-08-02T07:40:58Z,42.805,6.029,13.2976,4.59980,2470.11,2020-8-02T09:41:46Z
2020-08-02T07:44:02Z,42.805,6.029,13.2981,4.59986,2470.124,2020-8-02T09:44:50Z
2020-08-02T07:47:05Z,42.805,6.029,13.2979,4.59988,2470.11,2020-8-02T09:47:53Z
2020-08-02T07:50:08Z,42.805,6.029,13.2993,4.60000,2470.124,2020-8-02T09:50:56Z
2020-08-02T07:53:11Z,42.805,6.029,13.2991,4.59987,2470.077,2020-8-02T09:53:59Z
2020-08-02T07:56:14Z,42.805,6.029,13.2991,4.59990,2470.087,2020-8-02T09:57:03Z
2020-08-02T07:59:18Z,42.805,6.029,13.2986,4.60009,2470.124,2020-8-02T10:00:06Z
2020-08-02T08:02:21Z,42.805,6.029,13.2974,4.59989,2470.1,2020-8-02T10:03:09Z
2020-08-02T08:05:24Z,42.805,6.029,13.2986,4.59995,2470.087,2020-8-02T10:06:12Z
2020-08-02T08:08:27Z,42.805,6.029,13.2996,4.60003,2470.11,2020-8-02T10:09:16Z
2020-08-02T08:11:31Z,42.805,6.029,13.2996,4.59998,2470.11,2020-8-02T10:12:19Z
2020-08-02T08:14:34Z,42.805,6.029,13.2998,4.60021,2470.063,2020-8-02T10:15:22Z
2020-08-02T08:17:37Z,42.805,6.029,13.2986,4.60004,2470.087,2020-8-02T10:18:25Z
2020-08-02T08:20:40Z,42.805,6.029,13.2990,4.60006,2470.1,2020-8-02T10:21:29Z
2020-08-02T08:23:44Z,42.805,6.029,13.2994,4.60003,2470.063,2020-8-02T10:24:32Z
2020-08-02T08:26:47Z,42.805,6.029,13.2993,4.59999,2470.1,2020-8-02T10:27:35Z
2020-08-02T08:29:50Z,42.805,6.029,13.2999,4.60003,2470.124,2020-8-02T10:30:38Z
2020-08-02T08:32:53Z,42.805,6.029,13.2986,4.59999,2470.087,2020-8-02T10:33:41Z
2020-08-02T08:35:57Z,42.805,6.029,13.2971,4.59981,2470.04,2020-8-02T10:36:45Z
2020-08-02T08:39:00Z,42.805,6.029,13.2991,4.59993,2470.063,2020-8-02T10:39:48Z
2020-08-02T08:42:03Z,42.805,6.029,13.2991,4.60019,2470.04,2020-8-02T10:42:51Z
2020-08-02T08:45:07Z,42.805,6.029,13.2986,4.60009,2470.1,2020-8-02T10:45:55Z
2020-08-02T08:48:10Z,42.805,6.029,13.2987,4.60011,2470.053,2020-8-02T10:48:58Z
2020-08-02T08:51:13Z,42.805,6.029,13.2997,4.59997,2470.077,2020-8-02T10:52:01Z
2020-08-02T08:54:16Z,42.805,6.029,13.2998,4.60003,2470.087,2020-8-02T10:55:05Z
2020-08-02T08:57:20Z,42.805,6.029,13.2985,4.59989,2470.077,2020-8-02T10:58:08Z
2020-08-02T09:00:23Z,42.805,6.029,13.2977,4.59978,2470.087,2020-8-02T11:01:11Z
2020-08-02T09:03:26Z,42.805,6.029,13.2983,4.59982,2470.077,2020-8-02T11:04:14Z
2020-08-02T09:06:29Z,42.805,6.029,13.3007,4.59984,2470.04,2020-8-02T11:07:17Z
2020-08-02T09:09:33Z,42.805,6.029,13.2996,4.59998,2470.04,2020-8-02T11:10:21Z
2020-08-02T09:12:36Z,42.805,6.029,13.2991,4.59997,2470.053,2020-8-02T11:13:24Z
2020-08-02T09:15:39Z,42.805,6.029,13.2993,4.59988,2470.077,2020-8-02T11:16:27Z
2020-08-02T09:18:42Z,42.805,6.029,13.2992,4.60005,2470.04,2020-8-02T11:19:30Z
2020-08-02T09:21:46Z,42.805,6.029,13.2995,4.60003,2470.1,2020-8-02T11:22:34Z
2020-08-02T09:24:49Z,42.805,6.029,13.2995,4.60002,2470.063,2020-8-02T11:25:37Z
2020-08-02T09:27:52Z,42.805,6.029,13.2992,4.60009,2470.04,2020-8-02T11:28:40Z
2020-08-02T09:30:55Z,42.805,6.029,13.2991,4.60026,2470.017,2020-8-02T11:31:43Z
2020-08-02T09:33:58Z,42.805,6.029,13.2993,4.60016,2470.04,2020-8-02T11:34:47Z
2020-08-02T09:37:02Z,42.805,6.029,13.2991,4.60019,2469.993,2020-8-02T11:37:50Z
2020-08-02T09:40:05Z,42.805,6.029,13.2980,4.60025,2470.017,2020-8-02T11:40:53Z
2020-08-02T09:43:08Z,42.805,6.029,13.2986,4.59999,2470.053,2020-8-02T11:43:56Z
2020-08-02T09:46:12Z,42.805,6.029,13.2983,4.60008,2470.04,2020-8-02T11:47:00Z
2020-08-02T09:49:15Z,42.805,6.029,13.2984,4.60009,2470.017,2020-8-02T11:50:03Z
2020-08-02T09:52:18Z,42.805,6.029,13.2979,4.60005,2470.03,2020-8-02T11:53:06Z
2020-08-02T09:55:21Z,42.805,6.029,13.2983,4.60029,2470.04,2020-8-02T11:56:09Z
2020-08-02T09:58:24Z,42.805,6.029,13.2986,4.60008,2470.04,2020-8-02T11:59:13Z
2020-08-02T10:01:28Z,42.805,6.029,13.2985,4.60025,2470.007,2020-8-02T12:02:16Z
2020-08-02T10:04:31Z,42.805,6.029,13.2989,4.60015,2470.017,2020-8-02T12:05:19Z
2020-08-02T10:07:34Z,42.805,6.029,13.2976,4.59996,2470.017,2020-8-02T12:08:22Z
2020-08-02T10:10:37Z,42.805,6.029,13.2997,4.60019,2469.993,2020-8-02T12:11:26Z
2020-08-02T10:13:41Z,42.805,6.029,13.2979,4.60005,2469.993,2020-8-02T12:14:29Z
2020-08-02T10:16:44Z,42.805,6.029,13.2985,4.60016,2469.993,2020-8-02T12:17:32Z
2020-08-02T10:19:47Z,42.805,6.029,13.2979,4.60019,2470.007,2020-8-02T12:20:35Z
2020-08-02T10:22:50Z,42.805,6.029,13.2986,4.60016,2469.97,2020-8-02T12:23:38Z
2020-08-02T10:25:53Z,42.805,6.029,13.2983,4.60009,2469.993,2020-8-02T12:26:42Z
2020-08-02T10:28:57Z,42.805,6.029,13.2974,4.60000,2469.993,2020-8-02T12:29:45Z
2020-08-02T10:32:00Z,42.805,6.029,13.2985,4.60014,2470.017,2020-8-02T12:32:48Z
2020-08-02T10:35:03Z,42.805,6.029,13.2982,4.60007,2470.007,2020-8-02T12:35:51Z
2020-08-02T10:38:06Z,42.805,6.029,13.2986,4.60004,2470.007,2020-8-02T12:38:55Z
2020-08-02T10:41:10Z,42.805,6.029,13.2983,4.60006,2469.993,2020-8-02T12:41:58Z
2020-08-02T10:44:13Z,42.805,6.029,13.2990,4.60029,2469.97,2020-8-02T12:45:01Z
2020-08-02T10:47:16Z,42.805,6.029,13.2991,4.60014,2469.97,2020-8-02T12:48:04Z
2020-08-02T10:50:19Z,42.805,6.029,13.2986,4.60010,2469.984,2020-8-02T12:51:08Z
2020-08-02T10:53:23Z,42.805,6.029,13.2977,4.59996,2469.993,2020-8-02T12:54:11Z
2020-08-02T10:56:26Z,42.805,6.029,13.2985,4.59996,2469.993,2020-8-02T12:57:14Z
2020-08-02T10:59:29Z,42.805,6.029,13.2982,4.60010,2469.993,2020-8-02T13:00:17Z
2020-08-02T11:02:32Z,42.805,6.029,13.2982,4.60010,2469.97,2020-8-02T13:03:21Z
2020-08-02T11:05:36Z,42.805,6.029,13.2991,4.60009,2470.007,2020-8-02T13:06:24Z
2020-08-02T11:08:39Z,42.805,6.029,13.2982,4.60009,2469.956,2020-8-02T13:09:27Z
2020-08-02T11:11:42Z,42.805,6.029,13.2981,4.60004,2469.993,2020-8-02T13:12:30Z
2020-08-02T11:14:45Z,42.805,6.029,13.2981,4.60000,2470.007,2020-8-02T13:15:33Z
2020-08-02T11:17:48Z,42.805,6.029,13.2986,4.60007,2469.97,2020-8-02T13:18:37Z
2020-08-02T11:20:52Z,42.805,6.029,13.2980,4.60006,2469.97,2020-8-02T13:21:40Z
2020-08-02T11:23:55Z,42.805,6.029,13.2983,4.60002,2469.96,2020-8-02T13:24:43Z
2020-08-02T11:26:58Z,42.805,6.029,13.2983,4.60002,2469.947,2020-8-02T13:27:46Z
2020-08-02T11:30:01Z,42.805,6.029,13.2976,4.60001,2469.96,2020-8-02T13:30:50Z
2020-08-02T11:33:05Z,42.805,6.029,13.2980,4.60012,2469.96,2020-8-02T13:33:53Z
2020-08-02T11:36:08Z,42.805,6.029,13.2993,4.60016,2469.97,2020-8-02T13:36:56Z
2020-08-02T11:39:11Z,42.805,6.029,13.2982,4.60013,2469.97,2020-8-02T13:39:59Z
2020-08-02T11:42:14Z,42.805,6.029,13.2982,4.59998,2469.984,2020-8-02T13:43:02Z
2020-08-02T11:45:17Z,42.805,6.029,13.2983,4.60006,2469.984,2020-8-02T13:46:06Z
2020-08-02T11:48:21Z,42.805,6.029,13.2986,4.59998,2469.984,2020-8-02T13:49:09Z
2020-08-02T11:51:24Z,42.805,6.029,13.2976,4.59994,2469.96,2020-8-02T13:52:12Z
2020-08-02T11:54:27Z,42.805,6.029,13.2983,4.59995,2469.97,2020-8-02T13:55:15Z
2020-08-02T11:57:30Z,42.805,6.029,13.2979,4.59994,2469.947,2020-8-02T13:58:19Z
2020-08-02T12:00:34Z,42.805,6.029,13.2981,4.60003,2469.947,2020-8-02T14:01:22Z
2020-08-02T12:03:37Z,42.805,6.029,13.2978,4.60011,2469.96,2020-8-02T14:04:25Z
2020-08-02T12:06:40Z,42.805,6.029,13.2974,4.60001,2469.97,2020-8-02T14:07:29Z
2020-08-02T12:09:44Z,42.805,6.029,13.2985,4.60019,2469.937,2020-8-02T14:10:32Z
2020-08-02T12:12:47Z,42.805,6.029,13.2980,4.59992,2469.947,2020-8-02T14:13:35Z
2020-08-02T12:15:50Z,42.805,6.029,13.2978,4.60001,2469.947,2020-8-02T14:16:38Z
2020-08-02T12:18:53Z,42.805,6.029,13.2982,4.60004,2469.96,2020-8-02T14:19:41Z
2020-08-02T12:21:56Z,42.805,6.029,13.2977,4.59997,2469.947,2020-8-02T14:22:45Z
2020-08-02T12:25:00Z,42.805,6.029,13.2986,4.60003,2469.947,2020-8-02T14:25:48Z
2020-08-02T12:28:03Z,42.805,6.029,13.2982,4.59997,2469.96,2020-8-02T14:28:51Z
2020-08-02T12:31:06Z,42.805,6.029,13.2978,4.60007,2469.947,2020-8-02T14:31:54Z
2020-08-02T12:34:09Z,42.805,6.029,13.2977,4.60000,2469.947,2020-8-02T14:34:57Z
2020-08-02T12:37:13Z,42.805,6.029,13.2974,4.59992,2469.97,2020-8-02T14:38:01Z
2020-08-02T12:40:16Z,42.805,6.029,13.2976,4.59995,2469.947,2020-8-02T14:41:04Z
2020-08-02T12:43:19Z,42.805,6.029,13.2980,4.59993,2469.947,2020-8-02T14:44:07Z
2020-08-02T12:46:23Z,42.805,6.029,13.2980,4.60003,2469.947,2020-8-02T14:47:11Z
2020-08-02T12:49:26Z,42.805,6.029,13.2983,4.60007,2469.947,2020-8-02T14:50:14Z
2020-08-02T12:52:29Z,42.805,6.029,13.2978,4.60003,2469.97,2020-8-02T14:53:17Z
2020-08-02T12:55:32Z,42.805,6.029,13.2977,4.60002,2469.96,2020-8-02T14:56:20Z
2020-08-02T12:58:35Z,42.805,6.029,13.2982,4.59995,2469.97,2020-8-02T14:59:24Z
2020-08-02T13:01:39Z,42.805,6.029,13.2971,4.59993,2469.947,2020-8-02T15:02:27Z
2020-08-02T13:04:42Z,42.805,6.029,13.2978,4.59999,2469.947,2020-8-02T15:05:30Z
2020-08-02T13:07:45Z,42.805,6.029,13.2982,4.59997,2469.947,2020-8-02T15:08:34Z
2020-08-02T13:10:49Z,42.805,6.029,13.2983,4.59999,2469.97,2020-8-02T15:11:37Z
2020-08-02T13:13:52Z,42.805,6.029,13.2979,4.60001,2469.923,2020-8-02T15:14:40Z
2020-08-02T13:16:55Z,42.805,6.029,13.2982,4.60004,2469.947,2020-8-02T15:17:43Z
2020-08-02T13:19:58Z,42.805,6.029,13.2982,4.60004,2470.007,2020-8-02T15:20:46Z
2020-08-02T13:23:01Z,42.805,6.029,13.2980,4.60006,2470.017,2020-8-02T15:23:50Z
2020-08-02T13:26:05Z,42.805,6.029,13.2979,4.60001,2469.96,2020-8-02T15:26:53Z
2020-08-02T13:29:08Z,42.805,6.029,13.2979,4.59998,2469.984,2020-8-02T15:29:56Z
2020-08-02T13:32:12Z,42.805,6.029,13.2979,4.60000,2469.947,2020-8-02T15:33:00Z
2020-08-02T13:35:15Z,42.805,6.029,13.2982,4.60005,2469.97,2020-8-02T15:36:03Z
2020-08-02T13:38:18Z,42.805,6.029,13.2979,4.60003,2469.984,2020-8-02T15:39:06Z
2020-08-02T13:41:21Z,42.805,6.029,13.2982,4.60011,2469.947,2020-8-02T15:42:09Z
2020-08-02T13:44:25Z,42.805,6.029,13.2994,4.60019,2470.007,2020-8-02T15:45:13Z
2020-08-02T13:47:28Z,42.805,6.029,13.2990,4.60024,2469.97,2020-8-02T15:48:16Z
2020-08-02T13:50:31Z,42.805,6.029,13.2996,4.60011,2469.97,2020-8-02T15:51:19Z
2020-08-02T13:53:34Z,42.805,6.029,13.2983,4.60014,2469.984,2020-8-02T15:54:22Z
2020-08-02T13:56:37Z,42.805,6.029,13.2981,4.60024,2469.97,2020-8-02T15:57:25Z
2020-08-02T13:59:41Z,42.805,6.029,13.2982,4.60012,2470.007,2020-8-02T16:00:29Z
2020-08-02T14:02:44Z,42.805,6.029,13.2982,4.60011,2469.97,2020-8-02T16:03:32Z
2020-08-02T14:05:47Z,42.805,6.029,13.2979,4.60013,2469.984,2020-8-02T16:06:35Z
2020-08-02T14:08:50Z,42.805,6.029,13.2980,4.60006,2469.993,2020-8-02T16:09:38Z
2020-08-02T14:11:53Z,42.805,6.029,13.2982,4.60017,2469.984,2020-8-02T16:12:41Z
2020-08-02T14:14:57Z,42.805,6.029,13.2977,4.60013,2469.993,2020-8-02T16:15:45Z
2020-08-02T14:18:00Z,42.805,6.029,13.2975,4.59999,2469.984,2020-8-02T16:18:48Z
2020-08-02T14:21:03Z,42.805,6.029,13.2984,4.60003,2469.979,2020-8-02T16:21:51Z
2020-08-02T14:24:06Z,42.805,6.029,13.2981,4.60011,2470.007,2020-8-02T16:24:55Z
2020-08-02T14:27:10Z,42.805,6.029,13.2982,4.60012,2469.993,2020-8-02T16:27:58Z
2020-08-02T14:30:13Z,42.805,6.029,13.2988,4.60017,2470.007,2020-8-02T16:31:01Z
2020-08-02T14:33:16Z,42.805,6.029,13.2980,4.60021,2469.97,2020-8-02T16:34:04Z
2020-08-02T14:36:19Z,42.805,6.029,13.2984,4.60020,2469.993,2020-8-02T16:37:07Z
2020-08-02T14:39:22Z,42.805,6.029,13.2983,4.60007,2470.03,2020-8-02T16:40:11Z
2020-08-02T14:42:26Z,42.805,6.029,13.2986,4.60012,2470.007,2020-8-02T16:43:14Z
2020-08-02T14:45:29Z,42.805,6.029,13.2978,4.60011,2470.03,2020-8-02T16:46:17Z
2020-08-02T14:48:32Z,42.805,6.029,13.2974,4.60005,2470.007,2020-8-02T16:49:20Z
2020-08-02T14:51:36Z,42.805,6.029,13.2979,4.60019,2470.007,2020-8-02T16:52:24Z
2020-08-02T14:54:39Z,42.805,6.029,13.2983,4.60003,2470.04,2020-8-02T16:55:27Z
2020-08-02T14:57:42Z,42.805,6.029,13.2986,4.60024,2470.007,2020-8-02T16:58:30Z
2020-08-02T15:00:45Z,42.805,6.029,13.2983,4.60003,2470.017,2020-8-02T17:01:33Z
2020-08-02T15:03:48Z,42.805,6.029,13.2977,4.60000,2470.017,2020-8-02T17:04:37Z
2020-08-02T15:06:52Z,42.805,6.029,13.2981,4.59988,2469.993,2020-8-02T17:07:40Z
2020-08-02T15:09:55Z,42.805,6.029,13.2981,4.60001,2470.04,2020-8-02T17:10:43Z
2020-08-02T15:12:58Z,42.805,6.029,13.2980,4.60002,2470.03,2020-8-02T17:13:46Z
2020-08-02T15:16:01Z,42.805,6.029,13.2982,4.60003,2470.017,2020-8-02T17:16:49Z